CDT,Max TemperatureF,Mean TemperatureF,Min TemperatureF,Max Dew PointF,MeanDew PointF,Min DewpointF,Max Humidity, Mean Humidity, Min Humidity, Max Sea Level PressureIn, Mean Sea Level PressureIn, Min Sea Level PressureIn, Max VisibilityMiles, Mean VisibilityMiles, Min VisibilityMiles, Max Wind SpeedMPH, Mean Wind SpeedMPH, Max Gust SpeedMPH,PrecipitationIn, CloudCover, Events, WindDirDegrees
2013-5-1,71,68,66,64,62,60,90,80,71,30.05,30.00,29.94,10,10,7,10,5,20,0.07,7,Rain-Thunderstorm,81
2013-5-2,73,68,64,64,61,56,84,78,68,30.04,29.99,29.94,10,10,8,10,7,22,0.00,8,Rain,72
2013-5-3,72,68,63,63,61,57,94,84,60,29.96,29.88,29.84,10,7,2,13,7,23,0.14,8,Rain,77
2013-5-4,66,57,45,61,50,43,100,87,48,29.91,29.86,29.80,10,6,2,17,7,26,0.92,7,Rain,332
2013-5-5,73,56,39,52,43,38,100,69,34,29.94,29.86,29.77,10,10,8,16,3,26,0.00,1,Thunderstorm,289
2013-5-6,66,54,42,53,46,40,93,72,45,29.98,29.94,29.90,10,10,8,13,6,21,0.00,4,,265
2013-5-7,73,64,53,55,53,49,94,74,42,30.03,29.97,29.91,10,10,9,10,5,18,0.00,4,,285
2013-5-8,80,64,48,61,53,46,96,68,39,30.10,30.06,30.00,10,9,6,7,1,,0.00,2,,274
2013-5-9,84,70,55,64,58,55,100,76,38,30.14,30.09,30.05,10,6,0,10,1,17,0.01,2,Fog,214
2013-5-10,82,68,55,64,60,54,100,78,44,30.13,30.04,29.94,10,7,0,10,2,16,0.00,3,Fog,225
2013-5-11,75,68,62,66,63,61,100,88,66,30.02,29.99,29.94,10,7,0,12,3,,0.00,4,Fog-Rain,223
2013-5-12,79,69,55,64,55,48,93,64,39,30.10,30.04,29.96,10,9,7,10,4,20,0.00,0,,347
2013-5-13,75,60,45,48,41,34,90,53,22,30.25,30.18,30.10,10,10,10,13,4,23,0.00,0,,6
2013-5-14,82,64,46,57,48,43,93,60,29,30.28,30.21,30.14,10,10,8,9,1,,0.00,0,,288
2013-5-15,86,69,52,57,53,50,93,59,32,30.22,30.14,30.05,10,10,7,8,2,,0.00,0,,222
2013-5-16,84,72,60,63,58,53,87,65,38,30.09,30.04,29.98,10,10,10,10,2,,0.00,1,,211
2013-5-17,84,72,59,66,62,57,100,77,41,30.10,30.06,30.00,10,7,0,13,2,18,0.00,4,Fog,207
2013-5-18,82,74,66,70,68,64,94,83,56,30.12,30.07,30.01,10,8,3,9,4,,0.07,5,Rain-Thunderstorm,211
2013-5-19,86,76,66,71,67,64,100,80,51,30.09,30.04,29.98,10,8,0,16,2,26,0.01,4,Fog-Rain-Thunderstorm,240
2013-5-20,89,80,70,70,67,63,93,71,43,30.07,30.01,29.93,10,9,5,12,5,21,0.04,3,Rain-Thunderstorm,60
2013-5-21,90,77,64,70,66,62,100,77,40,30.04,29.98,29.88,10,7,0,10,1,,0.00,3,Fog,200
2013-5-22,88,77,66,70,67,63,100,78,44,29.99,29.95,29.87,10,7,0,8,1,,0.00,4,Fog,247
2013-5-23,90,78,66,69,62,57,96,61,33,30.02,29.98,29.94,10,9,5,12,3,18,0.00,1,,318
2013-5-24,88,74,61,62,54,46,93,56,25,30.17,30.09,29.99,10,10,7,14,4,22,0.00,0,,7
2013-5-25,86,68,50,60,49,41,93,54,21,30.26,30.19,30.15,10,10,10,6,1,16,0.00,0,,85
2013-5-26,87,71,55,65,57,53,96,63,31,30.24,30.17,30.11,10,10,9,7,1,,0.00,0,,232
2013-5-27,89,74,60,67,59,49,100,69,26,30.20,30.14,30.06,10,7,0,12,1,16,0.00,2,Fog,184
2013-5-28,91,76,62,65,60,55,93,62,32,30.13,30.09,30.03,10,10,10,9,2,,0.00,1,,175
2013-5-29,90,78,66,70,63,59,90,61,35,30.12,30.07,30.02,10,10,10,10,4,20,0.06,3,Rain,140
2013-5-30,89,80,71,70,67,61,93,72,40,30.15,30.09,30.02,10,9,0,8,4,18,0.15,4,,132
2013-5-31,88,80,70,68,65,61,87,64,41,30.13,30.06,30.00,10,10,10,9,5,20,0.00,3,,143